sat.trackr.live / text

‹ back to catalog

FORMOSAT-7R (TRITON)

NORAD 58017 · 2023-155B

PAYLOAD ACTIVE UNKNOWN

§ Identity

Operator
Country
ROC
Launch date
2023-10-09
Launch site
FRGUI
Launch vehicle
Mass (kg)
RCS (m²)

External: N2YO · Heavens-Above · Gunter

§ Orbital elements

Epoch: 2026-05-25T05:19:13.584864Z

Period
96.58 min
Inclination
97.8354°
Eccentricity
0.0002333
Mean motion
14.91035978 rev/d
Perigee alt
593.1 km
Apogee alt
596.3 km
Semi-major
6,972.8 km
B*
1.3900e-4
RAAN
226.7772°
Arg perigee
121.2848°
Mean anomaly
238.8599°
Rev number
14,280

§ Raw data

FORMOSAT-7R (TRITON)1 58017U 23155B   26145.22168501  .00001319  00000+0  13900-3 0  99992 58017  97.8354 226.7772 0002333 121.2848 238.8599 14.91035978142805

JSON: /api/v1/satellites/58017 · /tle

For live sub-satellite position, see the globe view (requires WebGL).

§ Visibility from observer

Set your observer location to see the next 7 days of passes ≥ 10°. The values pass through the URL so the page stays shareable.

No JS? Fill the form by hand. The geolocation button needs JavaScript.

§ Radio — SatNOGS DB

ModeDescriptionDownlinkUplink
CW Mode U 400.900 MHz

1 transmitter · refreshed weekly from db.satnogs.org